Weather reports worldwide

Advertisment
Shoreham Airport, United Kingdom (3876): temperature & dewpoint: 08.12.2017 15:00:00 - 14.12.2017 15:00:00 (GMT)Shoreham Airport, United Kingdom (3876): wind speed & gusts: 08.12.2017 15:00:00 - 14.12.2017 15:00:00 (GMT)Shoreham Airport, United Kingdom (3876): wind direction: 08.12.2017 15:00:00 - 14.12.2017 15:00:00 (GMT)Shoreham Airport, United Kingdom (3876): reduced air pressure: 08.12.2017 15:00:00 - 14.12.2017 15:00:00 (GMT)Shoreham Airport, United Kingdom (3876): visibility: 08.12.2017 15:00:00 - 14.12.2017 15:00:00 (GMT)Shoreham Airport, United Kingdom (3876): precipitation: 08.12.2017 15:00:00 - 14.12.2017 15:00:00 (GMT)
Date & Time tt [°C] td [°C] ff [km/h] ff [kn] fx [km/h] fx [kn] dd ppp [hPa] vv [km] rr [mm]
14.12.2017 15:00:00 6,0 3,0 18 10 - - W - 10 0,0
14.12.2017 14:00:00 6,5 2,0 21 11 - - W 991,1 10 0,0
14.12.2017 13:00:00 7,3 3,5 24 13 - - W 992,0 10 0,0
14.12.2017 12:00:00 6,6 2,5 22 12 - - W 993,1 10 0,0
14.12.2017 11:00:00 6,3 1,9 26 14 - - W 993,9 10 0,0
14.12.2017 10:00:00 5,8 1,9 24 13 - - W 994,4 10 0,0
14.12.2017 09:00:00 5,1 2,1 18 10 - - W 994,3 - 0,0
14.12.2017 08:00:00 3,9 2,0 15 8 - - W 994,6 - 0,0
14.12.2017 07:00:00 4,0 2,3 18 10 - - W 994,9 - 0,0
14.12.2017 06:00:00 3,1 1,4 15 8 - - W 995,0 - 0,0
14.12.2017 05:00:00 4,1 2,2 42 23 65 35 W 995,7 - 0,2
14.12.2017 04:00:00 5,1 1,9 26 14 - - W 995,4 - 0,0
14.12.2017 03:00:00 4,4 1,7 26 14 - - W 995,9 - 0,0
14.12.2017 02:00:00 4,2 1,1 31 17 46 25 W 995,5 - 0,0
14.12.2017 01:00:00 4,8 0,1 31 17 54 29 W 995,1 - 0,0
14.12.2017 00:00:00 4,3 -0,1 35 19 55 30 W 994,5 - 0,0
13.12.2017 23:00:00 4,7 1,1 37 20 54 29 W 993,1 - 0,0
13.12.2017 22:00:00 5,6 3,2 29 16 55 30 W 991,7 - 0,2
13.12.2017 21:00:00 6,6 4,4 31 17 48 26 W 991,6 - 0,4
13.12.2017 20:00:00 4,9 2,9 9 5 - - W 992,9 10 0,0
13.12.2017 19:00:00 4,7 2,5 18 10 - - W 993,5 10 0,0
13.12.2017 18:00:00 5,2 2,8 13 7 - - W 993,3 10 0,0
13.12.2017 17:00:00 7,6 4,1 29 16 61 33 WNW 993,1 9 0,4
13.12.2017 16:00:00 9,6 8,2 34 18 - - W 992,4 6 0,2
13.12.2017 15:00:00 9,6 8,8 26 14 46 25 WSW 992,9 7 0,4
13.12.2017 14:00:00 9,7 8,7 29 16 - - WSW 994,5 6 0,2
13.12.2017 13:00:00 9,2 8,1 26 14 - - SW 996,2 6 0,6
13.12.2017 12:00:00 9,3 7,8 22 12 - - WSW 998,2 9 0,2
13.12.2017 11:00:00 9,0 7,6 24 13 - - WSW 999,9 9 0,0
13.12.2017 10:00:00 7,4 6,2 9 5 - - W 1001,0 10 0,2
13.12.2017 09:00:00 7,2 6,3 13 7 - - W 1001,9 7 0,2
13.12.2017 08:00:00 7,0 5,8 16 9 - - W 1002,5 7 0,0
13.12.2017 07:00:00 7,0 5,9 18 10 - - W 1002,3 - 0,0
13.12.2017 06:00:00 7,1 5,6 15 8 - - W 1002,0 - 0,0
13.12.2017 05:00:00 8,0 7,2 8 4 55 30 W 1001,3 - 0,6
13.12.2017 04:00:00 8,9 8,1 41 22 59 32 SW 1001,6 - 0,0
13.12.2017 03:00:00 8,8 7,9 42 23 63 34 SSW 1002,7 - 0,2
13.12.2017 02:00:00 8,3 7,6 39 21 59 32 SSW 1004,0 - 0,2
13.12.2017 01:00:00 8,3 6,9 41 22 57 31 SW 1005,2 - 0,2
13.12.2017 00:00:00 8,3 6,9 42 23 54 29 SSW 1006,4 - 1,6
12.12.2017 23:00:00 7,9 6,7 31 17 - - SW 1007,4 - 0,6
12.12.2017 22:00:00 8,3 6,3 31 17 - - SSW 1007,9 - 0,0
12.12.2017 21:00:00 8,2 5,9 22 12 - - SSW 1009,2 - 0,0
12.12.2017 20:00:00 7,5 5,2 21 11 - - SW 1009,7 10 0,0
12.12.2017 19:00:00 7,4 4,9 21 11 - - SSW 1010,0 10 0,0
12.12.2017 18:00:00 1,0 -0,2 4 2 - - - 1010,4 10 0,0
12.12.2017 17:00:00 1,2 -0,1 5 3 - - E 1010,6 10 0,0
12.12.2017 16:00:00 2,7 0,7 0 0 - - N 1011,1 10 0,0
12.12.2017 15:00:00 4,1 1,1 5 3 - - WSW 1010,8 10 0,0
12.12.2017 14:00:00 4,8 0,8 8 4 - - WSW 1010,3 10 0,0
12.12.2017 13:00:00 4,6 0,8 9 5 - - WSW 1010,4 10 0,0
12.12.2017 12:00:00 4,2 0,5 8 4 - - SW 1010,4 - 0,0
12.12.2017 11:00:00 1,8 -0,7 4 2 - - NNW 1010,5 10 0,0
12.12.2017 10:00:00 0,5 -1,3 4 2 - - NW 1009,6 10 0,0
12.12.2017 09:00:00 -0,4 -1,7 2 1 - - W 1009,6 10 0,0
12.12.2017 08:00:00 -2,9 -3,9 8 4 - - WNW 1008,3 10 0,0
12.12.2017 07:00:00 -2,6 -3,7 2 1 - - W 1007,2 - 0,0
12.12.2017 06:00:00 -2,4 -3,8 13 7 - - N 1005,8 - 0,0
12.12.2017 05:00:00 -1,0 -2,8 15 8 - - N 1005,1 - 0,0
12.12.2017 04:00:00 -1,6 -2,9 15 8 - - NNW 1004,3 - 0,0
12.12.2017 03:00:00 -1,5 -3,0 15 8 - - NNW 1003,1 - 0,0
12.12.2017 02:00:00 -1,3 -2,9 9 5 - - NW 1001,7 - 0,0
12.12.2017 01:00:00 -0,8 -3,0 11 6 - - N 1000,2 - 0,0
12.12.2017 00:00:00 -0,3 -3,0 13 7 - - N 999,4 - 0,0
11.12.2017 23:00:00 -0,1 -3,5 8 4 - - NNW 998,2 - 0,0
11.12.2017 22:00:00 0,7 -2,9 21 11 - - N 996,9 - 0,0
11.12.2017 21:00:00 1,2 -1,5 24 13 - - NNW 995,5 - 0,0
11.12.2017 20:00:00 0,9 -1,0 16 9 - - N 993,6 10 0,0
11.12.2017 19:00:00 1,3 -0,9 18 10 - - NNW 992,0 10 0,0
11.12.2017 18:00:00 1,8 -0,6 22 12 - - NNW 990,2 10 0,0
11.12.2017 17:00:00 2,5 0,3 22 12 - - NNW 988,2 10 0,0
11.12.2017 16:00:00 3,3 1,5 26 14 - - N 986,0 10 0,0
11.12.2017 15:00:00 2,7 1,8 29 16 54 29 N 984,1 8 0,2
11.12.2017 14:00:00 3,0 1,8 26 14 48 26 N 982,3 10 0,0
11.12.2017 13:00:00 2,8 1,9 31 17 52 28 N 980,5 10 0,2
11.12.2017 12:00:00 2,2 1,5 31 17 54 29 N 979,0 8 0,6
11.12.2017 11:00:00 1,3 0,9 34 18 48 26 N 978,1 - 1,8
11.12.2017 10:00:00 1,0 0,5 31 17 48 26 N 977,0 - 2,8
11.12.2017 09:00:00 1,8 0,9 29 16 52 28 N 976,3 - 2,4
11.12.2017 08:00:00 3,7 2,5 34 18 46 25 NNE 975,8 - 1,6
11.12.2017 07:00:00 3,8 2,6 34 18 - - NE 975,6 - 0,8
11.12.2017 06:00:00 3,4 2,2 29 16 46 25 NE 975,6 - 0,6
11.12.2017 05:00:00 3,2 1,9 24 13 - - NE 976,3 - 0,2
11.12.2017 04:00:00 2,9 1,7 29 16 46 25 NE 976,5 - 0,0
11.12.2017 03:00:00 2,9 2,2 15 8 - - NNE 978,4 - 0,0
11.12.2017 02:00:00 1,8 1,0 15 8 - - N 979,7 - 0,0
11.12.2017 01:00:00 1,1 0,4 15 8 - - N 979,8 - 0,0
11.12.2017 00:00:00 1,0 0,1 8 4 - - NE 980,5 - 0,0
10.12.2017 23:00:00 0,5 -0,1 11 6 - - NE 980,0 - 0,0
10.12.2017 22:00:00 0,5 -0,3 5 3 - - NE 980,7 - 0,0
10.12.2017 21:00:00 1,1 0,1 5 3 - - NE 980,5 - 0,0
10.12.2017 20:00:00 1,8 0,6 9 5 - - NNE 980,2 - 0,0
10.12.2017 19:00:00 1,4 0,4 8 4 - - N 979,9 10 0,0
10.12.2017 18:00:00 0,9 -0,2 5 3 - - NNW 979,6 10 0,0
10.12.2017 17:00:00 1,5 0,2 9 5 - - NW 979,0 10 0,0
10.12.2017 16:00:00 2,2 0,6 16 9 - - WNW 977,9 10 0,0
10.12.2017 15:00:00 2,7 0,9 24 13 54 29 WNW 977,3 10 0,0
10.12.2017 14:00:00 4,9 2,8 37 20 78 42 WNW 975,7 10 0,0
10.12.2017 13:00:00 7,1 4,9 48 26 - - W 974,4 10 1,2
10.12.2017 12:00:00 8,5 5,9 61 33 98 53 W 972,8 6 0,0
10.12.2017 11:00:00 8,5 5,5 46 25 76 41 W 973,8 - 0,2
10.12.2017 10:00:00 8,8 6,0 44 24 76 41 W 974,0 - 0,4
10.12.2017 09:00:00 8,9 7,5 46 25 68 37 W 974,0 - 1,0
10.12.2017 08:00:00 9,5 9,0 35 19 54 29 WSW 974,4 - 5,0
10.12.2017 07:00:00 6,1 5,2 29 16 57 31 SE 979,1 - 3,6
10.12.2017 06:00:00 5,8 4,3 39 21 61 33 SSE 983,6 - 2,4
10.12.2017 05:00:00 6,0 5,0 35 19 54 29 SSE 987,6 - 1,4
10.12.2017 04:00:00 6,2 4,7 35 19 48 26 SSE 991,2 - 0,8
10.12.2017 03:00:00 6,4 4,8 28 15 - - S 994,7 - 0,4
10.12.2017 02:00:00 6,2 5,4 18 10 - - SSE 997,9 - 1,4
10.12.2017 01:00:00 3,4 1,7 9 5 - - E 1000,9 - 0,4
10.12.2017 00:00:00 2,8 -1,3 2 1 - - NE 1003,6 - 0,0
09.12.2017 23:00:00 1,5 -0,8 4 2 - - ENE 1005,5 - 0,0
09.12.2017 22:00:00 1,3 -0,9 5 3 - - ESE 1007,1 - 0,0
09.12.2017 21:00:00 1,3 -0,7 2 1 - - N 1008,7 - 0,0
09.12.2017 20:00:00 0,9 -1,9 0 0 - - N 1010,0 10 0,0
09.12.2017 19:00:00 1,9 -1,4 0 0 - - N 1011,2 10 0,0
09.12.2017 18:00:00 2,5 -0,8 8 4 - - WNW 1012,1 10 0,0
09.12.2017 17:00:00 1,5 -0,3 9 5 - - W 1012,9 10 0,0
09.12.2017 16:00:00 1,7 -0,7 8 4 - - W 1013,7 10 0,0
09.12.2017 15:00:00 2,8 -0,5 15 8 - - W 1014,4 10 0,0
09.12.2017 14:00:00 3,8 0,0 11 6 - - WSW 1015,2 10 0,0
09.12.2017 13:00:00 4,4 -0,1 8 4 - - WNW 1016,5 10 0,0
09.12.2017 12:00:00 3,1 -0,5 9 5 - - WSW 1017,3 10 0,0
09.12.2017 11:00:00 3,8 -0,4 11 6 - - W 1018,3 10 0,0
09.12.2017 10:00:00 1,7 -0,9 9 5 - - WSW 1018,9 10 0,0
09.12.2017 09:00:00 0,4 -1,5 13 7 - - WNW 1019,1 10 0,0
09.12.2017 08:00:00 -2,1 -3,7 2 1 - - ESE 1019,3 - 0,0
09.12.2017 07:00:00 -1,4 -3,2 11 6 - - W 1019,4 - 0,0
09.12.2017 06:00:00 0,5 -2,4 21 11 - - WNW 1019,2 - 0,0
09.12.2017 05:00:00 0,5 -2,2 18 10 - - NW 1019,1 - 0,0
09.12.2017 04:00:00 -1,3 -2,5 16 9 - - W 1019,6 - 0,0
09.12.2017 03:00:00 0,0 -1,9 16 9 - - WNW 1019,6 - 0,0
09.12.2017 02:00:00 -0,2 -2,2 11 6 - - WNW 1019,7 - 0,0
09.12.2017 01:00:00 0,5 -2,0 18 10 - - WNW 1019,6 - 0,0
09.12.2017 00:00:00 0,1 -2,8 13 7 - - NW 1019,8 - 0,0
08.12.2017 23:00:00 0,9 -2,0 18 10 - - WNW 1019,5 - 0,0
08.12.2017 22:00:00 0,9 -2,2 18 10 - - WNW 1019,5 - 0,0
08.12.2017 21:00:00 0,8 -2,1 16 9 - - W 1019,1 - 0,0
08.12.2017 20:00:00 1,7 -1,8 28 15 - - WNW 1018,9 10 0,0
08.12.2017 19:00:00 2,1 -1,4 22 12 - - WNW 1019,0 10 0,0
08.12.2017 18:00:00 1,4 -2,0 11 6 - - NW 1018,5 10 0,0
08.12.2017 17:00:00 1,7 -2,5 15 8 - - WNW 1018,4 10 0,0
08.12.2017 16:00:00 3,0 -2,0 24 13 48 26 NW 1017,9 10 0,0
08.12.2017 15:00:00 4,1 -2,2 31 17 52 28 NW 1017,4 10 0,0

tt = temperature
td = dewpoint
ff = wind speed
fx = gusts
dd = wind direction
ppp = reduced air pressure
vv = visibility
rr = precipitation

Next stations